Weather History for O'Neill, NE

Change the Weather History Date:

Monday, September 9, 2013

  Actual Average Record
Temperature  
Mean Temperature 78 °F -  
Max Temperature 89 °F 82 °F 98 °F (1983)
Min Temperature 68 °F 53 °F 38 °F (1992)
Cooling Degree Days 14    
Growing Degree Days 28 (Base 50)    
Moisture  
Dew Point 60 °F    
Average Humidity 51    
Maximum Humidity 77    
Minimum Humidity 39    
Precipitation  
Precipitation 0.00 in - - ()
Sea Level Pressure  
Sea Level Pressure 29.80 in    
Wind  
Wind Speed 10 mph (West)    
Max Wind Speed 14 mph    
Max Gust Speed 20 mph    
Visibility 10 miles    
Events      
Averages and records for this station are not official NWS values.
T = Trace of Precipitation, MM = Missing Value Source: NWS Daily Summary

Daily Weather History Graph

Daily Weather History Graph

Search for Another Location

Airport:

Trip Planner

Search our weather history database for the weather conditions in past years. The results will help you decide how hot, cold, wet, or windy it might be!

Date:

Astronomy

Sep. 09, 2013 Rise Set
Actual Time 7:08 AM CDT 7:54 PM CDT
Civil Twilight 6:40 AM CDT 8:22 PM CDT
Nautical Twilight 6:06 AM CDT 8:56 PM CDT
Astronomical Twilight 5:31 AM CDT 9:31 PM CDT
Moon 11:38 AM CDT (9/9) 10:05 PM CDT (9/9)
Length of Visible Light 13h 42m
Length of Day
12h 45m
Waxing Crescent, 19% of the Moon is Illuminated
Sep 9
Waxing Crescent
Sep 12
First Quarter
Sep 19
Full
Sep 26
Last Quarter
Oct 4
New

Hourly Weather History & Observations

Time (CDT) Temp. Heat Index Dew Point Humidity Pressure Visibility Wind Dir Wind Speed Gust Speed Precip Events Conditions
12:15 AM 81.0 °F 82.6 °F 64.4 °F 57% 29.78 in 10.0 mi South 10.4 mph - N/A   Clear
12:35 AM 82.0 °F 83.1 °F 62.6 °F 52% 29.78 in 10.0 mi South 13.8 mph 18.4 mph N/A   Clear
12:55 AM 81.3 °F 82.1 °F 61.2 °F 50% 29.78 in 10.0 mi South 11.5 mph - N/A   Clear
1:15 AM 81.1 °F 81.6 °F 59.9 °F 48% 29.77 in 10.0 mi South 13.8 mph 19.6 mph N/A   Clear
1:35 AM 80.6 °F 81.0 °F 58.8 °F 47% 29.76 in 10.0 mi South 13.8 mph - N/A   Clear
1:55 AM 80.1 °F 80.6 °F 58.3 °F 47% 29.76 in 10.0 mi SSW 13.8 mph 18.4 mph N/A   Clear
2:15 AM 79.7 °F - 57.6 °F 47% 29.77 in 10.0 mi SSW 13.8 mph 18.4 mph N/A   Clear
2:35 AM 80.1 °F 80.4 °F 56.7 °F 45% 29.77 in 10.0 mi SSW 12.7 mph 19.6 mph N/A   Clear
2:55 AM 79.5 °F - 56.1 °F 44% 29.77 in 10.0 mi SSW 11.5 mph 18.4 mph N/A   Clear
3:15 AM 78.8 °F - 55.8 °F 45% 29.77 in 10.0 mi SSW 11.5 mph 18.4 mph N/A   Clear
3:35 AM 77.7 °F - 55.9 °F 47% 29.76 in 10.0 mi SSW 11.5 mph - N/A   Clear
3:55 AM 77.2 °F - 55.8 °F 47% 29.75 in 10.0 mi SSW 11.5 mph - N/A   Clear
4:15 AM 77.0 °F - 55.8 °F 48% 29.75 in 10.0 mi SSW 12.7 mph 19.6 mph N/A   Clear
4:35 AM 76.3 °F - 55.8 °F 49% 29.75 in 10.0 mi SSW 9.2 mph - N/A   Clear
4:55 AM 75.4 °F - 55.9 °F 51% 29.75 in 10.0 mi SSW 6.9 mph - N/A   Clear
5:15 AM 73.8 °F - 56.3 °F 54% 29.76 in 10.0 mi SSW 8.1 mph - N/A   Clear
5:35 AM 73.4 °F - 56.3 °F 55% 29.76 in 10.0 mi SW 5.8 mph - N/A   Clear
5:55 AM 72.3 °F - 56.3 °F 57% 29.75 in 10.0 mi SSW 9.2 mph - N/A   Clear
6:15 AM 71.1 °F - 56.5 °F 60% 29.75 in 10.0 mi South 8.1 mph - N/A   Clear
6:35 AM 70.0 °F - 56.5 °F 62% 29.76 in 10.0 mi South 5.8 mph - N/A   Clear
6:55 AM 70.0 °F - 56.3 °F 62% 29.76 in 10.0 mi South 5.8 mph - N/A   Clear
7:15 AM 69.8 °F - 56.3 °F 62% 29.75 in 10.0 mi South 5.8 mph - N/A   Clear
7:35 AM 70.2 °F - 55.9 °F 61% 29.77 in 10.0 mi Calm Calm - N/A   Clear
7:55 AM 72.5 °F - 55.9 °F 56% 29.77 in 10.0 mi SW 3.5 mph - N/A   Clear
8:15 AM 72.7 °F - 57.0 °F 58% 29.78 in 10.0 mi SSW 5.8 mph - N/A   Clear
8:35 AM 74.5 °F - 57.2 °F 55% 29.78 in 10.0 mi SSW 6.9 mph - N/A   Clear
8:55 AM 76.6 °F - 57.6 °F 52% 29.78 in 10.0 mi SSW 6.9 mph - N/A   Clear
9:15 AM 79.2 °F - 57.2 °F 47% 29.77 in 10.0 mi SSW 9.2 mph - N/A   Clear
9:35 AM 80.6 °F 80.7 °F 56.7 °F 44% 29.78 in 10.0 mi SW 11.5 mph - N/A   Clear
9:55 AM 81.7 °F 81.5 °F 56.8 °F 43% 29.78 in 10.0 mi SW 9.2 mph - N/A   Clear
10:15 AM 83.1 °F 82.4 °F 56.1 °F 40% 29.79 in 10.0 mi WSW 11.5 mph 16.1 mph N/A   Clear
10:35 AM 83.5 °F 82.6 °F 55.8 °F 39% 29.79 in 10.0 mi West 12.7 mph - N/A   Clear
10:55 AM 83.8 °F 83.1 °F 57.4 °F 40% 29.79 in 10.0 mi West 11.5 mph 19.6 mph N/A   Clear
11:15 AM 82.8 °F 82.8 °F 59.4 °F 45% 29.80 in 10.0 mi West 10.4 mph - N/A   Clear
11:35 AM 82.9 °F 83.7 °F 61.9 °F 49% 29.80 in 10.0 mi WNW 9.2 mph - N/A   Clear
11:55 AM 83.1 °F 84.0 °F 62.8 °F 50% 29.80 in 10.0 mi WNW 6.9 mph - N/A   Clear
12:15 PM 84.4 °F 85.4 °F 63.3 °F 49% 29.80 in 10.0 mi WNW 9.2 mph - N/A   Clear
12:35 PM 85.3 °F 85.9 °F 62.1 °F 46% 29.80 in 10.0 mi NW 6.9 mph - N/A   Clear
12:55 PM 86.2 °F 86.6 °F 61.7 °F 44% 29.80 in 10.0 mi NW 6.9 mph - N/A   Clear
1:15 PM 87.1 °F 87.5 °F 61.9 °F 43% 29.80 in 10.0 mi NW 8.1 mph - N/A   Clear
1:35 PM 86.9 °F 86.5 °F 60.1 °F 40% 29.80 in 10.0 mi NW 6.9 mph - N/A   Clear
1:55 PM 87.3 °F 87.2 °F 60.8 °F 41% 29.80 in 10.0 mi WNW 6.9 mph - N/A   Clear
2:15 PM 87.6 °F 87.7 °F 61.5 °F 41% 29.80 in 10.0 mi NNW 4.6 mph - N/A   Clear
2:55 PM 88.5 °F 88.3 °F 60.8 °F 39% 29.80 in 10.0 mi NW 6.9 mph - N/A   Clear
3:15 PM 88.5 °F 88.6 °F 61.2 °F 40% 29.80 in 10.0 mi NNW 5.8 mph - N/A   Clear
3:35 PM 89.1 °F 89.6 °F 62.4 °F 41% 29.80 in 10.0 mi NW 6.9 mph - N/A   Clear
3:55 PM 88.9 °F 89.4 °F 62.6 °F 41% 29.79 in 10.0 mi NW 6.9 mph - N/A   Clear
4:15 PM 89.1 °F 89.6 °F 62.4 °F 41% 29.80 in 10.0 mi WNW 3.5 mph - N/A   Clear
4:35 PM 89.1 °F 89.6 °F 62.6 °F 41% 29.79 in 10.0 mi NNW 6.9 mph - N/A   Clear
4:55 PM 89.1 °F 90.3 °F 64.0 °F 43% 29.79 in 10.0 mi NW 9.2 mph - N/A   Clear
5:15 PM 88.7 °F 89.8 °F 63.9 °F 43% 29.79 in 10.0 mi NNW 8.1 mph - N/A   Clear
5:35 PM 88.5 °F 89.8 °F 63.9 °F 44% 29.80 in 10.0 mi NNW 9.2 mph - N/A   Clear
5:55 PM 87.8 °F 89.4 °F 64.4 °F 46% 29.80 in 10.0 mi NNW 6.9 mph - N/A   Clear
6:15 PM 87.8 °F 89.4 °F 64.8 °F 46% 29.80 in 10.0 mi North 5.8 mph - N/A   Clear
6:35 PM 86.0 °F 87.3 °F 64.4 °F 48% 29.81 in 10.0 mi North 9.2 mph - N/A   Clear
6:55 PM 83.7 °F 84.9 °F 64.0 °F 51% 29.81 in 10.0 mi North 9.2 mph - N/A   Clear
7:15 PM 82.6 °F 83.6 °F 62.6 °F 51% 29.82 in 10.0 mi North 10.4 mph - N/A   Clear
7:35 PM 81.0 °F 81.9 °F 61.9 °F 52% 29.83 in 10.0 mi North 10.4 mph 18.4 mph N/A   Clear
7:55 PM 78.8 °F - 60.1 °F 53% 29.84 in 10.0 mi North 11.5 mph - N/A   Clear
8:15 PM 77.2 °F - 59.4 °F 54% 29.85 in 10.0 mi North 9.2 mph - N/A   Clear
8:35 PM 75.9 °F - 59.2 °F 56% 29.86 in 10.0 mi North 9.2 mph - N/A   Clear
8:55 PM 73.9 °F - 60.1 °F 62% 29.88 in 10.0 mi North 6.9 mph - N/A   Clear
9:15 PM 73.6 °F - 60.4 °F 63% 29.88 in 10.0 mi North 9.2 mph - N/A   Clear
9:35 PM 72.9 °F - 60.8 °F 66% 29.88 in 10.0 mi North 10.4 mph - N/A   Clear
9:55 PM 72.9 °F - 60.3 °F 65% 29.89 in 10.0 mi North 8.1 mph - N/A   Clear
10:15 PM 72.1 °F - 60.8 °F 67% 29.89 in 10.0 mi North 8.1 mph - N/A   Clear
10:35 PM 70.7 °F - 61.0 °F 71% 29.89 in 10.0 mi NNE 6.9 mph - N/A   Clear
10:55 PM 70.9 °F - 61.3 °F 72% 29.90 in 10.0 mi NNE 6.9 mph - N/A   Clear
11:15 PM 69.8 °F - 61.2 °F 74% 29.91 in 10.0 mi NNE 4.6 mph - N/A   Clear
11:35 PM 68.9 °F - 60.8 °F 75% 29.92 in 10.0 mi North 4.6 mph - N/A   Clear
11:55 PM 68.2 °F - 60.8 °F 77% 29.92 in 10.0 mi NNE 3.5 mph - N/A   Clear